CW9803 Weather Reports


time (UTC)temp
C
wind
direction
speed
KPH
gust
KPH
rain 1hr
cm
rain 24hr
cm
rain mn
cm
humidity
%
barometer
mb
20260904171514 10 122 0.0 0.0 0.00 0.00 0.00 79 1012.7
20260904171010 10 122 0.0 0.0 0.00 0.00 0.00 79 1012.7
20260904170505 10 104 0.0 0.0 0.00 0.00 0.00 81 1012.7
20260904170001 8 81 0.0 1.6 0.00 0.00 0.00 84 1012.4
20260904165459 8 110 0.0 0.0 0.00 0.00 0.00 85 1012.5
20260904164959 9 124 0.0 0.0 0.00 0.00 0.00 84 1012.4
20260904164453 9 104 0.0 0.0 0.00 0.00 0.00 84 1012.3
20260904163438 8 98 0.0 0.0 0.00 0.00 0.00 86 1012.2
20260904162938 8 98 0.0 0.0 0.00 0.00 0.00 86 1012.2
20260904162433 8 60 1.6 3.2 0.00 0.00 0.00 86 1012.3
20260904161928 9 138 0.0 1.6 0.00 0.00 0.00 88 1012.4
20260904161424 8 104 1.6 1.6 0.00 0.00 0.00 91 1012.1
20260904160920 7 242 3.2 3.2 0.00 0.00 0.00 93 1012.0
20260904160414 7 134 1.6 3.2 0.00 0.00 0.00 96 1012.4
20260904155909 7 144 1.6 1.6 0.00 0.00 0.00 97 1012.2
20260904155404 7 200 1.6 3.2 0.00 0.00 0.00 98 1012.0
20260904154903 7 80 0.0 1.6 0.00 0.00 0.00 99 1012.0
20260904154357 7 177 1.6 3.2 0.00 0.00 0.00 99 1012.2
20260904153853 7 87 3.2 3.2 0.00 0.00 0.00 99 1012.1
20260904153348 7 17 1.6 4.8 0.00 0.00 0.00 99 1012.0
20260904152845 6 64 1.6 1.6 0.00 0.00 0.00 99 1012.1
20260904152344 6 125 3.2 3.2 0.00 0.00 0.00 99 1012.1
20260904151838 6 201 3.2 3.2 0.00 0.00 0.00 99 1012.1
20260904151338 6 58 4.8 4.8 0.00 0.00 0.00 99 1012.0
20260904150834 6 305 3.2 3.2 0.00 0.00 0.00 99 1011.9
20260904150329 6 131 0.0 0.0 0.00 0.00 0.00 99 1011.9
20260904145826 6 102 1.6 3.2 0.00 0.00 0.00 99 1011.9
20260904145323 6 95 1.6 1.6 0.00 0.00 0.00 99 1012.1
20260904144819 6 44 3.2 3.2 0.00 0.00 0.00 99 1011.9
20260904144314 6 111 1.6 1.6 0.00 0.00 0.00 99 1011.9
20260904143809 6 134 0.0 1.6 0.00 0.00 0.00 99 1011.9
20260904143306 6 98 0.0 0.0 0.00 0.00 0.00 99 1011.8
20260904142802 5 128 0.0 1.6 0.00 0.00 0.00 99 1012.1
20260904142257 6 94 1.6 1.6 0.00 0.00 0.00 99 1011.9
20260904141752 6 71 1.6 1.6 0.00 0.00 0.00 99 1011.8
20260904141248 6 139 0.0 0.0 0.00 0.00 0.00 99 1011.4
20260904140743 6 114 0.0 0.0 0.00 0.00 0.00 99 1011.4
20260904140238 6 144 0.0 0.0 0.00 0.00 0.00 99 1011.6
20260904135737 5 91 0.0 0.0 0.00 0.00 0.00 99 1011.4
20260904135232 6 120 0.0 0.0 0.00 0.00 0.00 99 1011.0
20260904134729 5 117 0.0 0.0 0.00 0.00 0.00 99 1011.2
20260904134228 6 107 0.0 0.0 0.00 0.00 0.00 99 1011.1
20260904133722 5 109 1.6 1.6 0.00 0.00 0.00 99 1010.9
20260904133220 6 65 3.2 3.2 0.00 0.00 0.00 99 1011.0
20260904132718 6 121 0.0 0.0 0.00 0.00 0.00 99 1011.0
20260904132214 5 118 0.0 0.0 0.00 0.00 0.00 99 1010.8
20260904131713 6 121 0.0 0.0 0.00 0.00 0.00 99 1010.9
20260904131209 5 101 1.6 1.6 0.00 0.00 0.00 99 1010.7
20260904130703 5 119 0.0 0.0 0.00 0.00 0.00 99 1010.6
20260904130202 5 122 0.0 0.0 0.00 0.00 0.00 99 1010.8
20260904125659 5 120 0.0 0.0 0.00 0.00 0.00 99 1010.7
20260904125154 5 118 0.0 0.0 0.00 0.00 0.00 99 1010.5
20260904124649 5 117 1.6 1.6 0.00 0.00 0.00 99 1010.5
20260904124145 5 108 0.0 0.0 0.00 0.00 0.00 99 1010.6
20260904123644 5 94 0.0 1.6 0.00 0.00 0.00 99 1010.3
20260904123140 6 70 0.0 1.6 0.00 0.00 0.00 99 1010.3
20260904122635 6 117 0.0 0.0 0.00 0.00 0.00 99 1010.6
20260904122130 6 124 0.0 0.0 0.00 0.00 0.00 99 1010.4
20260904121625 6 106 0.0 1.6 0.00 0.00 0.00 99 1010.3
20260904121121 6 77 0.0 0.0 0.00 0.00 0.00 99 1010.0
20260904120617 6 130 0.0 0.0 0.00 0.00 0.00 99 1010.3
20260904120113 6 154 0.0 0.0 0.00 0.00 0.00 99 1010.3
20260904115608 6 117 0.0 0.0 0.00 0.00 0.00 99 1010.0